This is the latest recevied weather packets stored in our database for station/object OK0EK-12. If no packets are shown the sender has not sent any weather packets the latest 10 day(s).
| Time | Temp. | Humidity | Pressure | Rain* | Wind** | Luminosity | Snow |
|---|---|---|---|---|---|---|---|
| 1776936908 | 13.89° C | 43% | 1097.9 hPa | - | - | - | - |
| 1776936308 | 13.89° C | 40% | 1098 hPa | - | - | - | - |
| 1776935709 | 13.89° C | 43% | 1098 hPa | - | - | - | - |
| 1776935108 | 13.33° C | 44% | 1098.2 hPa | - | - | - | - |
| 1776934508 | 13.89° C | 43% | 1098.3 hPa | - | - | - | - |
| 1776933908 | 13.89° C | 42% | 1098.4 hPa | - | - | - | - |
| 1776933308 | 13.89° C | 41% | 1098.3 hPa | - | - | - | - |
| 1776932708 | 13.33° C | 44% | 1098.4 hPa | - | - | - | - |
| 1776932107 | 13.33° C | 44% | 1098.5 hPa | - | - | - | - |
| 1776931507 | 13.33° C | 45% | 1098.5 hPa | - | - | - | - |
| 1776930907 | 13.33° C | 45% | 1098.7 hPa | - | - | - | - |
| 1776930307 | 13.33° C | 45% | 1098.8 hPa | - | - | - | - |
| 1776929707 | 13.33° C | 45% | 1098.8 hPa | - | - | - | - |
| 1776929107 | 13.33° C | 45% | 1098.7 hPa | - | - | - | - |
| 1776928507 | 13.33° C | 45% | 1098.8 hPa | - | - | - | - |
| 1776927906 | 13.33° C | 45% | 1098.8 hPa | - | - | - | - |
| 1776927306 | 13.33° C | 44% | 1098.9 hPa | - | - | - | - |
| 1776926706 | 13.33° C | 44% | 1098.9 hPa | - | - | - | - |
| 1776926106 | 13.33° C | 46% | 1099 hPa | - | - | - | - |
| 1776925505 | 13.33° C | 45% | 1099 hPa | - | - | - | - |
| 1776924905 | 13.33° C | 46% | 1099 hPa | - | - | - | - |
| 1776924305 | 13.33° C | 45% | 1098.9 hPa | - | - | - | - |
| 1776923705 | 13.33° C | 45% | 1099 hPa | - | - | - | - |
| 1776923105 | 13.33° C | 46% | 1099 hPa | - | - | - | - |
| 1776922504 | 13.33° C | 46% | 1099 hPa | - | - | - | - |
* Rain since midnight (hover to see other rain measurements)
** Current wind speed in m/s (hover to see current wind gust speed)